Location: ?????????
(38.5999°N, 22.7695°E)
Time: 11:51:42
(UTC+00:00)

NOAA 11 - Pass Details

Date: 23 May 2024
Orbit: 833 x 848 km, 98.5° (Epoch: 18 June)

Event Time Altitude Azimuth Distance (km) Brightness Sun altitude
Rises 01:48:30 0° 14° (NNE) 3,418 8.3 -14.1°
Reaches altitude 10° 01:50:53 10° 15° (NNE) 2,479 7.5 -13.7°
Maximum altitude 01:56:24 80° 103° (ESE) 864 4.3 -12.9°
Drops below altitude 10° 02:01:53 10° 190° (S) 2,460 6.2 -12.1°
Enters shadow 02:02:25 - 191° (S) 2,673 6.4 -12.0°
